OK1VCF-5 Weather Reports


time (UTC)temp
C
wind
direction
speed
KPH
gust
KPH
rain 1hr
cm
rain 24hr
cm
rain mn
cm
humidity
%
barometer
mb
20260507070204 13 0 0.0 0.0 0.00 0.00 0.00 72 1015.2
20260507064703 14 0 0.0 0.0 0.00 0.00 0.00 73 1015.2
20260507063202 14 0 0.0 0.0 0.00 0.00 0.00 73 1015.1
20260507061905 13 0 0.0 0.0 0.00 0.00 0.00 78 1015.2
20260507061703 13 0 0.0 0.0 0.00 0.00 0.00 78 1015.2
20260507060202 13 0 0.0 0.0 0.00 0.00 0.00 80 1015.0
20260507054701 12 0 0.0 0.0 0.00 0.00 0.00 84 1014.6
20260507053200 12 0 0.0 0.0 0.00 0.00 0.00 86 1014.4
20260507051700 11 0 0.0 0.0 0.00 0.00 0.00 90 1014.4
20260507050201 12 0 0.0 0.0 0.00 0.00 0.00 88 1014.4
20260507044658 11 0 0.0 0.0 0.00 0.00 0.00 89 1014.2
20260507043157 11 0 0.0 0.0 0.00 0.00 0.00 90 1014.0
20260507041656 11 0 0.0 0.0 0.00 0.00 0.00 90 1013.8
20260507040156 11 0 0.0 0.0 0.00 0.00 0.00 89 1013.6
20260507034655 11 0 0.0 0.0 0.00 0.00 0.00 90 1013.5
20260507033156 -17 0 0.0 0.0 0.00 0.00 0.00 90 1013.2
20260507031652 11 0 0.0 0.0 0.00 0.00 0.00 90 1013.2
20260507030153 11 0 0.0 0.0 0.00 0.00 0.00 90 1013.2
20260507024650 11 0 0.0 0.0 0.00 0.00 0.00 90 1013.0
20260507023151 11 0 0.0 0.0 0.00 0.00 0.00 90 1013.0
20260507021650 11 0 0.0 0.0 0.00 0.00 0.00 93 1013.0
20260507020148 11 0 0.0 0.0 0.00 0.00 0.00 92 1013.0
20260507014649 11 0 0.0 0.0 0.00 0.00 0.00 92 1012.8
20260507013825 11 0 0.0 0.0 0.00 0.00 0.00 94 1012.8
20260507013148 11 0 0.0 0.0 0.00 0.00 0.00 94 1012.8
20260507011646 11 0 0.0 0.0 0.00 0.00 0.00 94 1012.6
20260507010146 11 0 0.0 0.0 0.00 0.00 0.00 94 1012.4
20260507004644 11 0 0.0 0.0 0.00 0.00 0.00 94 1012.2
20260507003432 11 0 0.0 0.0 0.00 0.00 0.00 94 1012.2
20260507003145 11 0 0.0 0.0 0.00 0.00 0.00 94 1012.2
20260507001644 11 0 0.0 0.0 0.00 0.00 0.00 94 1012.4
20260507000346 11 0 0.0 0.0 0.00 0.00 0.00 94 1012.0
20260507000143 11 0 0.0 0.0 0.00 0.00 0.00 94 1012.0
20260506234641 11 0 0.0 0.0 0.00 0.00 0.00 94 1011.8
20260506233143 12 0 0.0 0.0 0.00 0.00 0.00 93 1011.8
20260506231642 12 0 0.0 0.0 0.00 0.00 0.00 92 1011.6
20260506230140 12 0 0.0 0.0 0.00 0.00 0.00 92 1011.5
20260506224639 13 0 0.0 0.0 0.00 0.00 0.00 92 1011.6
20260506223256 13 0 0.0 0.0 0.00 0.00 0.00 92 1011.5
20260506223138 13 0 0.0 0.0 0.00 0.00 0.00 92 1011.5
20260506221638 13 0 0.0 0.0 0.00 0.00 0.00 91 1011.6
20260506220137 13 0 0.0 0.0 0.00 0.00 0.00 92 1011.2
20260506214635 13 0 0.0 0.0 0.00 0.00 0.00 92 1011.0
20260506213527 13 0 0.0 0.0 0.00 0.00 0.00 91 1010.6
20260506213135 13 0 0.0 0.0 0.00 0.00 0.00 91 1010.6
20260506211636 13 0 0.0 0.0 0.00 0.00 0.00 91 1010.6
20260506210132 13 0 0.0 0.0 0.00 0.00 0.00 90 1010.6
20260506204634 13 0 0.0 0.0 0.00 0.00 0.00 92 1010.8
20260506203132 13 0 0.0 0.0 0.00 0.00 0.00 89 1011.6
20260506200131 15 0 0.0 0.0 0.00 0.00 0.00 86 1011.6
20260506194629 14 0 0.0 0.0 0.00 0.00 0.00 86 1010.4
20260506193129 14 0 0.0 0.0 0.00 0.00 0.00 89 1009.2
20260506191628 15 0 0.0 0.0 0.00 0.00 0.00 89 1009.3
20260506190128 15 0 0.0 0.0 0.00 0.00 0.00 80 1008.8
20260506184627 15 0 0.0 0.0 0.00 0.00 0.00 78 1008.7
20260506183130 15 0 0.0 0.0 0.00 0.00 0.00 76 1008.4
20260506183126 15 0 0.0 0.0 0.00 0.00 0.00 76 1008.4
20260506181626 15 0 0.0 0.0 0.00 0.00 0.00 76 1008.2
20260506181624 15 0 0.0 0.0 0.00 0.00 0.00 76 1008.2
20260506180123 16 0 0.0 0.0 0.00 0.00 0.00 73 1008.0
20260506174624 16 0 0.0 0.0 0.00 0.00 0.00 72 1008.0
20260506173123 17 0 0.0 0.0 0.00 0.00 0.00 70 1007.8
20260506171625 17 0 0.0 0.0 0.00 0.00 0.00 69 1007.9
20260506170120 18 0 0.0 0.0 0.00 0.00 0.00 64 1007.5
20260506164621 18 0 0.0 0.0 0.00 0.00 0.00 61 1007.6
20260506163120 20 0 0.0 0.0 0.00 0.00 0.00 58 1007.9
20260506161619 20 0 0.0 0.0 0.00 0.00 0.00 58 1007.8
20260506160855 20 0 0.0 0.0 0.00 0.00 0.00 59 1008.1
20260506160118 20 0 0.0 0.0 0.00 0.00 0.00 59 1008.1
20260506154620 20 0 0.0 0.0 0.00 0.00 0.00 58 1008.2
20260506153948 20 0 0.0 0.0 0.00 0.00 0.00 59 1008.6
20260506153117 20 0 0.0 0.0 0.00 0.00 0.00 59 1008.6
20260506151614 21 0 0.0 0.0 0.00 0.00 0.00 56 1008.4
20260506150115 21 0 0.0 0.0 0.00 0.00 0.00 51 1008.4
20260506144613 20 0 0.0 0.0 0.00 0.00 0.00 54 1008.6
20260506143114 21 0 0.0 0.0 0.00 0.00 0.00 56 1008.2
20260506141613 22 0 0.0 0.0 0.00 0.00 0.00 52 1007.8
20260506140110 24 0 0.0 0.0 0.00 0.00 0.00 48 1007.8
20260506134610 24 0 0.0 0.0 0.00 0.00 0.00 41 1008.3
20260506133112 24 0 0.0 0.0 0.00 0.00 0.00 42 1008.4
20260506130109 23 0 0.0 0.0 0.00 0.00 0.00 44 1009.0
20260506124609 25 0 0.0 0.0 0.00 0.00 0.00 40 1009.0
20260506123107 24 0 0.0 0.0 0.00 0.00 0.00 41 1009.4
20260506121605 24 0 0.0 0.0 0.00 0.00 0.00 43 1009.6
20260506114606 23 0 0.0 0.0 0.00 0.00 0.00 42 1010.2
20260506111603 23 0 0.0 0.0 0.00 0.00 0.00 46 1010.4
20260506104602 23 0 0.0 0.0 0.00 0.00 0.00 48 1010.8
20260506103102 23 0 0.0 0.0 0.00 0.00 0.00 52 1010.8
20260506101600 23 0 0.0 0.0 0.00 0.00 0.00 51 1011.0
20260506094559 22 0 0.0 0.0 0.00 0.00 0.00 52 1011.1
20260506093651 21 0 0.0 0.0 0.00 0.00 0.00 54 1011.3
20260506093058 21 0 0.0 0.0 0.00 0.00 0.00 54 1011.3
20260506091557 21 0 0.0 0.0 0.00 0.00 0.00 55 1011.4
20260506090056 19 0 0.0 0.0 0.00 0.00 0.00 61 1011.4
20260506084555 18 0 0.0 0.0 0.00 0.00 0.00 63 1011.5
20260506083057 21 0 0.0 0.0 0.00 0.00 0.00 60 1011.4
20260506081825 18 0 0.0 0.0 0.00 0.00 0.00 60 1011.5
20260506081553 18 0 0.0 0.0 0.00 0.00 0.00 60 1011.5
20260506073053 18 0 0.0 0.0 0.00 0.00 0.00 66 1011.7
20260506071551 17 0 0.0 0.0 0.00 0.00 0.00 72 1011.7